Regional Weather Roundup
Issued by NWS

Home | Current Version | Previous Version | Graphics & Text | Print | Product List | Glossary On
Versions: 1 2 3 4 5 6 7 8 9 10 11 12 13 14 15 16 17 18 19 20 21 22 23 24 25 26 27 28 29 30 31 32 33 34 35 36 37 38 39 40 41 42 43 44 45 46 47 48 49 50
000
ASUS43 KDTX 051101
RWRMI
MICHIGAN HOURLY REGIONAL WEATHER ROUNDUP
NATIONAL WEATHER SERVICE DETROIT/PONTIAC MI
600 AM EST THU MAR 05 2015

NOTE: "FAIR" INDICATES FEW OR NO CLOUDS BELOW 12,000 FEET WITH NO
SIGNIFICANT WEATHER AND/OR OBSTRUCTION TO VISIBILITY.

MIZ047>049-052>055-059>063-066>070-074>076-081>083-051200-
SOUTHEAST LOWER MICHIGAN

CITY           SKY/WX    TMP DP  RH WIND       PRES   REMARKS
ADRIAN         PTCLDY     9  -2  61 N5        30.33R WCI   1
ALMA           PTCLDY    -1  -6  76 CALM      30.36R
ANN ARBOR      PTCLDY     9   0  67 N7        30.31R WCI  -2
BAD AXE        PTCLDY    -2  -8  76 CALM      30.32R
CARO           PTCLDY    -6 -11  82 CALM      30.33S
DETROIT CITY   PTCLDY    11  -1  58 N7        30.33S WCI   0
DETROIT        CLOUDY    11   1  64 N8        30.33R WCI  -1
FLINT          CLEAR      1  -6  72 CALM      30.34R
GROSSE ILE     MOCLDY    12   1  62 NE9       30.31S WCI   0
HILLSDALE      PTCLDY     5  -5  63 CALM      30.27S
HOWELL         PTCLDY     3  -3  78 CALM      30.30F

CITY           SKY/WX    TMP DP  RH WIND       PRES   REMARKS
JACKSON        PTCLDY     5  -2  72 NE3       30.31R
LAMBERTVILLE   MOCLDY    14   3  62 N3        30.33R
LANSING        PTCLDY     2  -5  72 CALM      30.35R
LAPEER         FAIR      -5  -8  84 CALM      30.33R
MASON          PTCLDY     2  -4  75 N3        30.31S
MONROE         MOCLDY    12   1  62 CALM      30.31S
MT. CLEMENS    PTCLDY     5  -2  72 N2        30.32R
PONTIAC        MOCLDY     5  -3  69 N5        30.29R WCI  -4
PORT HOPE        N/A      7  -3  64 NW9       30.31R WCI  -7
PORT HURON     PTCLDY     3  -6  66 NW5       30.33S WCI  -6
TRI CITIES     PTCLDY     4  -6  63 NW3       30.36R
TROY           PTCLDY    10  -1  60 CALM      30.35R
SAGINAW HB     PTCLDY     3  -8  60 NW3       30.35R
$$
MIZ043>046-050>051-056>058-064>065-071>073-077>080-051200-
SOUTHWEST LOWER MICHIGAN

CITY           SKY/WX    TMP DP  RH WIND       PRES   REMARKS
BATTLE CREEK   CLEAR      5  -3  69 N3        30.32R
BENTON HARBOR  MOCLDY    11   3  70 E6        30.34R WCI   1
BIG RAPIDS     PTCLDY    -6  -9  85 CALM      30.32R
COLDWATER      PTCLDY     2  -4  73 CALM      30.31R
FREMONT        PTSUNNY   -2  -6  83 CALM      30.34R
HOLLAND        CLOUDY     9   1  70 NE7       30.36R WCI  -2
GRAND RAPIDS   CLOUDY     5  -2  72 NE5       30.35R WCI  -4
IONIA          FAIR       2  -4  76 NE3       30.33R
KALAMAZOO      MOCLDY     4  -2  76 NE5       30.32R WCI  -5
LUDINGTON      CLOUDY     7   1  78 SE5       30.36R WCI  -2
MARSHALL       PTCLDY     1  -6  73 CALM      30.31R
MOUNT PLEASANT PTCLDY    -2  -6  81 CALM      30.34R
MUSKEGON       CLOUDY     7  -1  70 E5        30.37R WCI  -2
SOUTH HAVEN    CLOUDY    10   6  81 CALM      30.35R
$$
MIZ016>042-051200-
NORTHERN LOWER MICHIGAN

CITY           SKY/WX    TMP DP  RH WIND       PRES   REMARKS
ALPENA         CLEAR     -4 -10  75 W6        30.32R WCI -16
BEAVER ISLAND  CLEAR    -13 -18  79 CALM      30.33S
BELLAIRE       CLEAR    -17 -22  75 CALM      30.36R
CADILLAC       CLEAR    -15 -20  77 SW3       30.27R
CHARLEVOIX     CLEAR     -4  -8  84 CALM      30.36R
FRANKFORT      LGT SNOW   4   1  83 CALM      30.34R
GAYLORD        CLEAR    -12 -17  78 W5        30.24R WCI -24
GRAYLING       CLEAR    -21 -28  72 CALM      30.28R
HARBOR SPRINGS CLEAR     -7 -11  81 CALM      30.32R
HOUGHTON LAKE  CLEAR    -12 -17  78 CALM      30.29R
MANISTEE       CLOUDY     7   0  72 S3        30.35R
OSCODA         PTCLDY    -5 -11  75 NW6       30.32R WCI -18
PELLSTON       CLEAR    -20 -23  86 CALM      30.33R
ROGERS CITY    CLOUDY    -1  -5  83 W7        30.32R WCI -15
TRAVERSE CITY  CLOUDY    -9 -14  78 CALM      30.33R
$$
MIZ007>008-015-051200-
EASTERN UPPER MICHIGAN

CITY           SKY/WX    TMP DP  RH WIND       PRES   REMARKS
KINROSS        CLEAR    -11 -15  84 W5        30.30R WCI -23
MACKINAC ISLAN CLEAR     -4  -8  81 NW5       30.31R WCI -15
NEWBERRY       CLEAR    -13 -14  94 W6        30.29R WCI -27
S. S. MARIE    CLEAR    -10 -16  74 E3        30.30R
MUNISING         N/A     -1  -7  75 S7        30.33R WCI -14
$$
MIZ004>006-011>014-085-051200-
CENTRAL UPPER MICHIGAN

CITY           SKY/WX    TMP DP  RH WIND       PRES   REMARKS
MANISTIQUE     PTCLDY    -9 -12  85 W5        30.33R WCI -20
ESCANABA       CLEAR     -8  -8 100 NW6       30.36R WCI -21
MENOMINEE      CLEAR     -8 -15  71 NW3       30.36R
SAWYER-GWINN   CLEAR    -10 -15  78 NW7       30.27R WCI -25
$$
MIZ001>003-009>011-084-051200-
WESTERN UPPER MICHIGAN

CITY           SKY/WX    TMP DP  RH WIND       PRES   REMARKS
IRON MOUNTAIN  CLEAR    -14 -20  74 CALM      30.30R
HOUGHTON       CLEAR    -17 -20  86 W5        30.28R WCI -30
COPPER HARBOR    N/A     -3 -10  72 W6        30.32R WCI -15
IRONWOOD       CLEAR     -9 -15  77 SW5       30.29S WCI -21
$$

ABBREVIATIONS USED IN REMARKS
   TC - TEMPERATURE IN CELSIUS
  WCI - WIND CHILL INDEX
   HX - HEAT INDEX
  VSB - VISIBILITY




USA.gov is the U.S. government's official web portal to all federal, state and local government web resources and services.